Weather History for PASI - January, 2013

Change the Weather History Date:

Tuesday, January 15, 2013

  Actual Average Record
Temperature  
Mean Temperature 41 °F -  
Max Temperature 43 °F 37 °F 58 °F (1981)
Min Temperature 39 °F 29 °F 0 °F (1971)
Degree Days  
Heating Degree Days 24    
Moisture  
Dew Point 41 °F    
Average Humidity 97    
Maximum Humidity 100    
Minimum Humidity 87    
Precipitation  
Precipitation 1.26 in - - ()
Sea Level Pressure  
Sea Level Pressure 30.25 in    
Wind  
Wind Speed 12 mph (South)    
Max Wind Speed 22 mph    
Max Gust Speed 28 mph    
Visibility 5 miles    
Events Rain    
Averages and records for this station are not official NWS values.
T = Trace of Precipitation, MM = Missing Value Source: NWS Daily Summary

Daily Weather History Graph

Daily Weather History Graph

Search for Another Location

Airport or City:

Trip Planner

Search our weather history database for the weather conditions in past years. The results will help you decide how hot, cold, wet, or windy it might be!

Date:

Astronomy

Jan. 15, 2013 Rise Set
Actual Time 8:28 AM AKST 3:54 PM AKST
Civil Twilight 7:41 AM AKST 4:40 PM AKST
Nautical Twilight 6:53 AM AKST 5:29 PM AKST
Astronomical Twilight 6:07 AM AKST 6:15 PM AKST
Moon 9:32 AM AKST (1/15) 10:04 PM AKST (1/15)
Length of Visible Light 8h 58m
Length of Day
7h 26m
Waxing Crescent, 20% of the Moon is Illuminated
Jan 15
Waxing Crescent
Jan 18
First Quarter
Jan 26
Full
Feb 3
Last Quarter
Feb 9
New

Hourly Weather History & Observations

Time (AKST) Temp. Windchill Dew Point Humidity Pressure Visibility Wind Dir Wind Speed Gust Speed Precip Events Conditions
12:08 AM 42.8 °F 37.0 °F 42.8 °F 100% 30.31 in 4.0 mi South 10.4 mph - N/A   Overcast
12:26 AM 42.8 °F 37.0 °F 42.8 °F 100% 30.30 in 3.0 mi SSE 10.4 mph - 0.00 in Rain Light Rain
12:30 AM 42.8 °F 38.0 °F 42.8 °F 100% 30.30 in 3.0 mi South 8.1 mph - 0.01 in Rain Light Rain
12:40 AM 42.8 °F 35.8 °F 42.8 °F 100% 30.29 in 4.0 mi South 13.8 mph 18.4 mph 0.01 in Rain Light Rain
12:49 AM 42.8 °F 36.2 °F 42.8 °F 100% 30.29 in 4.0 mi South 12.7 mph - 0.01 in Rain Light Rain
12:53 AM 42.1 °F 35.2 °F 42.1 °F 100% 30.30 in 4.0 mi South 12.7 mph - 0.01 in Rain Light Rain
1:00 AM 42.8 °F 36.6 °F 42.8 °F 100% 30.29 in 4.0 mi South 11.5 mph 19.6 mph 0.00 in Rain Light Rain
1:53 AM 42.1 °F 32.8 °F 42.1 °F 100% 30.31 in 3.0 mi South 21.9 mph 27.6 mph 0.02 in Rain Light Rain
2:06 AM 42.8 °F 34.8 °F 42.8 °F 100% 30.31 in 2.0 mi South 17.3 mph 25.3 mph 0.01 in Rain Light Rain
2:22 AM 42.8 °F 34.5 °F 41.0 °F 93% 30.30 in 3.0 mi South 18.4 mph 25.3 mph 0.01 in Rain Light Rain
2:33 AM 42.8 °F 35.4 °F 41.0 °F 93% 30.28 in 2.5 mi South 15.0 mph 26.5 mph 0.02 in Rain Light Rain
2:46 AM 42.8 °F 35.4 °F 41.0 °F 93% 30.27 in 4.0 mi South 15.0 mph 23.0 mph 0.02 in Rain Light Rain
3:11 AM 42.8 °F 34.5 °F 41.0 °F 93% 30.29 in 6.0 mi South 18.4 mph 25.3 mph 0.00 in Rain Light Rain
3:53 AM 42.1 °F 35.2 °F 41.0 °F 96% 30.26 in 5.0 mi South 12.7 mph 21.9 mph 0.01 in Rain Light Rain
4:17 AM 42.8 °F 35.1 °F 39.2 °F 87% 30.23 in 6.0 mi South 16.1 mph 26.5 mph 0.00 in Rain Light Rain
4:50 AM 42.8 °F 35.8 °F 39.2 °F 87% 30.23 in 8.0 mi South 13.8 mph 24.2 mph 0.00 in   Overcast
4:53 AM 42.1 °F 33.9 °F 41.0 °F 96% 30.22 in 7.0 mi South 17.3 mph 24.2 mph 0.00 in   Overcast
5:28 AM 41.0 °F 33.1 °F 41.0 °F 100% 30.21 in 4.0 mi South 15.0 mph 20.7 mph 0.02 in Rain Light Rain
5:44 AM 41.0 °F 33.9 °F 41.0 °F 100% 30.22 in 2.5 mi South 12.7 mph 21.9 mph 0.05 in Rain Light Rain
5:53 AM 41.0 °F 32.5 °F 41.0 °F 100% 30.21 in 3.0 mi South 17.3 mph 25.3 mph 0.07 in Rain Rain
6:53 AM 41.0 °F 33.5 °F 41.0 °F 100% 30.23 in 4.0 mi South 13.8 mph 21.9 mph 0.17 in Rain Rain
7:30 AM 41.0 °F 33.1 °F 39.2 °F 93% 30.21 in 4.0 mi SSE 15.0 mph 21.9 mph 0.09 in Rain Rain
7:53 AM 42.1 °F 34.2 °F 39.9 °F 92% 30.22 in 4.0 mi SSE 16.1 mph 27.6 mph 0.15 in Rain Rain
8:03 AM 41.0 °F 33.1 °F 39.2 °F 93% 30.21 in 3.0 mi South 15.0 mph 20.7 mph 0.02 in Rain Rain
8:53 AM 39.9 °F 32.9 °F 37.9 °F 93% 30.20 in 4.0 mi ESE 11.5 mph 20.7 mph 0.16 in Rain Rain
9:53 AM 41.0 °F 35.2 °F 39.0 °F 93% 30.19 in 3.0 mi SE 9.2 mph 21.9 mph 0.14 in Rain Rain
10:27 AM 41.0 °F 35.2 °F 39.2 °F 93% 30.18 in 3.0 mi ESE 9.2 mph - 0.08 in Rain Rain
10:42 AM 39.2 °F 32.0 °F 39.2 °F 100% 30.17 in 2.0 mi ESE 11.5 mph - 0.10 in Rain Rain
10:51 AM 39.2 °F 31.6 °F 39.2 °F 100% 30.17 in 1.5 mi ESE 12.7 mph - 0.13 in Rain Rain
10:53 AM 39.9 °F 32.9 °F 39.0 °F 97% 30.17 in 1.5 mi East 11.5 mph - 0.13 in Rain Rain
11:35 AM 41.0 °F 36.4 °F 39.2 °F 93% 30.17 in 1.2 mi SE 6.9 mph - 0.11 in Rain Rain
11:53 AM 41.0 °F 36.4 °F 41.0 °F 100% 30.17 in 1.0 mi SE 6.9 mph - 0.15 in Rain Light Rain
12:53 PM 43.0 °F 37.2 °F 43.0 °F 100% 30.16 in 1.2 mi South 10.4 mph - 0.11 in Rain Light Rain
1:53 PM 43.0 °F 36.4 °F 43.0 °F 100% 30.16 in 1.2 mi South 12.7 mph - 0.06 in Rain Light Rain
2:53 PM 43.0 °F 36.8 °F 43.0 °F 100% 30.16 in 2.0 mi SSW 11.5 mph - 0.04 in Rain Light Rain
3:44 PM 42.8 °F 37.5 °F 42.8 °F 100% 30.17 in 1.8 mi SSW 9.2 mph - 0.02 in Rain Light Rain
3:53 PM 43.0 °F 37.7 °F 43.0 °F 100% 30.17 in 2.5 mi SSW 9.2 mph - 0.02 in Rain Light Rain
4:40 PM 42.8 °F 38.0 °F 42.8 °F 100% 30.18 in 4.0 mi SW 8.1 mph - 0.01 in Rain Light Rain
4:53 PM 43.0 °F 37.7 °F 43.0 °F 100% 30.19 in 5.0 mi SW 9.2 mph - 0.02 in   Overcast
5:18 PM 42.8 °F 37.5 °F 42.8 °F 100% 30.19 in 7.0 mi SW 9.2 mph - N/A   Overcast
5:46 PM 42.8 °F 37.5 °F 42.8 °F 100% 30.21 in 8.0 mi West 9.2 mph - N/A   Overcast
5:53 PM 43.0 °F 38.2 °F 43.0 °F 100% 30.21 in 6.0 mi WNW 8.1 mph - N/A   Overcast
6:40 PM 42.8 °F 37.5 °F 42.8 °F 100% 30.24 in 10.0 mi WNW 9.2 mph - N/A   Overcast
6:53 PM 42.1 °F 36.1 °F 41.0 °F 96% 30.25 in 10.0 mi WNW 10.4 mph - N/A   Overcast
7:53 PM 42.1 °F 40.2 °F 41.0 °F 96% 30.29 in 10.0 mi WNW 3.5 mph - N/A   Mostly Cloudy
8:44 PM 41.0 °F 34.7 °F 39.2 °F 93% 30.31 in 8.0 mi NW 10.4 mph - N/A   Mostly Cloudy
8:51 PM 41.0 °F 34.3 °F 39.2 °F 93% 30.31 in 7.0 mi NW 11.5 mph - N/A   Mostly Cloudy
8:53 PM 41.0 °F 33.1 °F 39.9 °F 96% 30.32 in 7.0 mi NW 15.0 mph - N/A   Mostly Cloudy
9:01 PM 41.0 °F 34.7 °F 39.2 °F 93% 30.32 in 6.0 mi WNW 10.4 mph - N/A   Mostly Cloudy
9:08 PM 41.0 °F 34.7 °F 39.2 °F 93% 30.32 in 6.0 mi West 10.4 mph - 0.00 in Rain Light Rain
9:53 PM 41.0 °F 36.4 °F 39.0 °F 93% 30.33 in 10.0 mi North 6.9 mph - 0.00 in   Overcast
10:53 PM 41.0 °F 38.0 °F 37.9 °F 89% 30.36 in 10.0 mi North 4.6 mph - N/A   Overcast
11:21 PM 39.2 °F - 39.2 °F 100% 30.37 in 10.0 mi Calm Calm - N/A   Overcast
11:53 PM 39.9 °F 36.7 °F 39.0 °F 97% 30.36 in 10.0 mi East 4.6 mph - N/A   Overcast